M I D A S
Marine Information and Data Acquisition System
Tripno 1543 of the Zeeleeuw from 2008-08-25 07:15:02 to 2008-08-25 13:13:50
Back to CruiseResearch ActivitiesStationsMapUnderway DataData graphs

EquipmentUnitsComment
TimeDGPSUTC
LatitudeDGPSDM.mWGS84
LongitudeDGPSDM.mWGS84
TemperatureSBE03/SBE38deg celciusITS90
ConductivitySBE21S/mITS90
SalinitySBE21 Practical Salinity Units
ChlorophylAChelsea fluorimeterg/lCalibrated in Aceton
Missing or incorrect values are displayed as -999
Sea surface data collected by the RV Zeeleeuw from 2008-08-25 07:15:39 to 2008-08-25 13:24:30
Time Latitude Longitude Temperature Conductivity Salinity ChlorophylA
2008-08-25 07:16:44 51°13.637 2°55.995 19.3443 0.059702 0.332393 -1.279161
2008-08-25 07:17:44 51°13.664 2°55.886 19.3628 0.059599 0.331827 -1.279161
2008-08-25 07:18:44 51°13.685 2°55.79 19.3549 0.059599 0.331857 -1.279161
2008-08-25 07:19:43 51°13.695 2°55.767 19.3481 0.059599 0.331887 -1.279161
2008-08-25 07:20:44 51°13.697 2°55.758 19.3745 0.059599 0.331899 -1.279161
2008-08-25 07:21:42 51°13.77 2°55.7 19.312 0.059599 0.331929 -1.279161
2008-08-25 07:22:40 51°13.88 2°55.605 19.338 0.059599 0.331941 -1.279161
2008-08-25 07:23:40 51°14.007 2°55.507 19.3478 0.059599 0.331971 -1.279161
2008-08-25 07:24:40 51°14.133 2°55.405 19.3691 0.059599 0.331983 -1.279161
2008-08-25 07:25:40 51°14.25 2°55.27 19.37 0.059599 0.332007 -1.279161
2008-08-25 07:26:40 51°14.36 2°55.077 19.3291 0.059599 0.332019 -1.279161
2008-08-25 07:27:40 51°14.494 2°54.867 19.3328 0.059599 0.332055 -1.279161
2008-08-25 07:28:40 51°14.603 2°54.624 19.3492 0.059599 0.332055 -1.279161
2008-08-25 07:29:40 51°14.688 2°54.386 19.3379 0.059599 0.332073 -1.279161
2008-08-25 07:30:40 51°14.755 2°54.14 19.3298 0.059599 0.332098 -1.279161
2008-08-25 07:31:40 51°14.8 2°53.887 19.3335 0.059599 0.332104 -1.279161
2008-08-25 07:32:40 51°14.819 2°53.624 19.3454 0.059599 0.332128 -1.279161
2008-08-25 07:33:40 51°14.842 2°53.36 19.347 0.059599 0.332134 -1.279161
2008-08-25 07:34:40 51°14.87 2°53.097 19.3354 0.059599 0.33214 -1.279161
2008-08-25 07:35:40 51°14.897 2°52.834 19.3448 0.059599 0.332146 -1.279161
2008-08-25 07:36:40 51°14.924 2°52.572 19.3651 0.059599 0.33214 -1.279161
2008-08-25 07:37:40 51°14.948 2°52.305 19.3509 0.059599 0.332122 -1.279161
2008-08-25 07:38:40 51°14.979 2°52.013 19.3564 0.059599 0.33211 -1.279161
2008-08-25 07:39:40 51°15.004 2°51.71 19.3619 0.059599 0.332091 -1.279161
2008-08-25 07:40:40 51°15.037 2°51.406 19.3796 0.059599 0.332085 -1.279161
2008-08-25 07:41:40 51°15.063 2°51.104 19.3759 0.059599 0.332079 -1.279161
2008-08-25 07:42:40 51°15.097 2°50.804 19.3799 0.059599 0.332079 -1.279161
2008-08-25 07:43:40 51°15.155 2°50.508 19.3874 0.059599 0.332085 -1.279161
2008-08-25 07:44:40 51°15.212 2°50.212 19.3955 0.059599 0.332091 -1.279161
2008-08-25 07:45:41 51°15.267 2°49.911 19.4052 0.059599 0.332098 -1.279161
2008-08-25 07:46:40 51°15.315 2°49.617 19.4134 0.059599 0.332104 -1.279161
2008-08-25 07:47:40 51°15.384 2°49.326 19.4259 0.059599 0.332128 -1.279161
2008-08-25 07:48:40 51°15.449 2°49.033 19.4321 0.059599 0.332134 -1.279161
2008-08-25 07:49:40 51°15.513 2°48.742 19.4394 0.059599 0.332152 -1.279161
2008-08-25 07:50:40 51°15.574 2°48.448 19.4584 0.059599 0.332164 -1.279161
2008-08-25 07:51:40 51°15.635 2°48.151 19.4597 0.059599 0.332176 -1.279161
2008-08-25 07:52:40 51°15.698 2°47.854 19.4698 0.059599 0.3322 -1.279161
2008-08-25 07:53:40 51°15.758 2°47.558 19.475 0.059599 0.332212 -1.279161
2008-08-25 07:54:41 51°15.813 2°47.258 19.4835 0.059599 0.332224 -1.279161
2008-08-25 07:55:40 51°15.878 2°46.971 19.4948 0.059599 0.332248 -1.279161
2008-08-25 07:56:40 51°15.944 2°46.679 19.505 0.059599 0.332266 -1.279161
2008-08-25 07:57:40 51°16.013 2°46.391 19.4981 0.059599 0.332272 -1.279161
2008-08-25 07:58:40 51°16.111 2°46.118 19.5227 0.059599 0.332297 -1.279161
2008-08-25 07:59:40 51°16.213 2°45.844 19.5291 0.059599 0.332315 -1.279161
2008-08-25 08:00:41 51°16.312 2°45.562 19.5374 0.059599 0.332327 -1.279161
2008-08-25 08:01:41 51°16.412 2°45.285 19.5532 0.059599 0.332357 -1.279161
2008-08-25 08:02:40 51°16.505 2°45.009 19.5599 0.059599 0.332369 -1.279161
2008-08-25 08:03:40 51°16.607 2°44.733 19.5609 0.059599 0.332393 -1.279161
2008-08-25 08:04:40 51°16.705 2°44.454 19.5811 0.059599 0.332411 -1.279161
2008-08-25 08:05:40 51°16.809 2°44.18 19.5968 0.059599 0.332435 -1.279161
2008-08-25 08:06:40 51°16.914 2°43.905 19.6027 0.059599 0.33246 -1.279161
2008-08-25 08:07:40 51°17.02 2°43.633 19.6194 0.059599 0.332478 -1.279161
2008-08-25 08:08:41 51°17.13 2°43.358 19.6226 0.059599 0.332502 -1.279161
2008-08-25 08:09:41 51°17.244 2°43.095 19.6481 0.059497 0.331929 -1.279161
2008-08-25 08:10:40 51°17.358 2°42.841 19.6461 0.059497 0.331941 -1.279161
2008-08-25 08:11:40 51°17.487 2°42.592 19.6567 0.059497 0.331959 -1.279161
2008-08-25 08:12:41 51°17.614 2°42.336 19.6804 0.059497 0.331971 -1.279161
2008-08-25 08:13:40 51°17.735 2°42.088 19.6848 0.059497 0.331959 -1.279161
2008-08-25 08:14:40 51°17.871 2°41.848 19.7142 0.059497 0.331965 -1.279161
2008-08-25 08:15:40 51°17.998 2°41.596 19.7133 0.059497 0.331953 -1.279161
2008-08-25 08:16:40 51°18.123 2°41.344 19.7348 0.059497 0.331935 -1.279161
2008-08-25 08:17:41 51°18.248 2°41.088 19.7421 0.059497 0.331916 -1.279161
2008-08-25 08:18:40 51°18.372 2°40.849 19.7484 0.059497 0.331922 -1.279161
2008-08-25 08:19:40 51°18.486 2°40.592 19.7657 0.059497 0.33191 -1.279161
2008-08-25 08:20:41 51°18.6 2°40.33 19.7676 0.059497 0.33191 -1.279161
2008-08-25 08:21:41 51°18.714 2°40.068 19.7804 0.059497 0.331904 -1.279161
2008-08-25 08:22:40 51°18.838 2°39.818 19.8024 0.059497 0.331916 -1.279161
2008-08-25 08:23:40 51°18.947 2°39.551 19.8131 0.059497 0.331916 -1.279161
2008-08-25 08:24:40 51°19.041 2°39.272 19.8283 0.059497 0.331922 -1.279161
2008-08-25 08:25:41 51°19.141 2°38.992 19.8336 0.059497 0.331935 -1.279161
2008-08-25 08:26:40 51°19.241 2°38.722 19.8484 0.059599 0.332538 -1.279161
2008-08-25 08:27:40 51°19.344 2°38.447 19.8733 0.059497 0.331953 -1.279161
2008-08-25 08:28:41 51°19.452 2°38.169 19.8826 0.059497 0.331965 -1.279161
2008-08-25 08:29:40 51°19.558 2°37.903 19.8846 0.059497 0.331971 -1.279161
2008-08-25 08:30:40 51°19.667 2°37.638 19.9025 0.059497 0.331983 -1.279161
2008-08-25 08:31:40 51°19.764 2°37.404 19.9113 0.059497 0.331989 -1.279161
2008-08-25 08:32:40 51°19.849 2°37.2 19.9342 0.059497 0.332001 -1.279161
2008-08-25 08:33:40 51°19.926 2°37.029 19.9441 0.059497 0.332013 -1.313985
2008-08-25 08:34:41 51°19.997 2°36.915 19.9728 0.059497 0.332013 -1.313985
2008-08-25 08:35:41 51°20.051 2°36.897 19.9686 0.059497 0.332031 -1.279161
2008-08-25 08:36:40 51°20.083 2°36.895 19.9908 0.059497 0.332037 -1.313985
2008-08-25 08:37:40 51°20.105 2°36.911 20.008 0.059497 0.332031 -1.279161
2008-08-25 08:38:40 51°20.124 2°36.932 20.006 0.059497 0.332037 -1.279161
2008-08-25 08:39:41 51°20.143 2°36.957 20.0319 0.059497 0.332043 -1.313985
2008-08-25 08:40:40 51°20.16 2°36.985 20.047 0.059497 0.332049 -1.279161
2008-08-25 08:41:41 51°20.201 2°37.006 20.0316 0.059497 0.332049 -1.279161
2008-08-25 08:42:41 51°20.24 2°37.106 20.0259 0.059497 0.332079 -1.279161
2008-08-25 08:43:40 51°20.188 2°37.168 20.0748 0.059497 0.332061 -1.279161
2008-08-25 08:44:41 51°20.106 2°37.094 20.0904 0.059497 0.332049 -1.279161
2008-08-25 08:45:40 51°20.028 2°36.979 20.0899 0.059497 0.332067 -1.279161
2008-08-25 08:46:40 51°20.01 2°36.904 20.1169 0.059497 0.332079 -1.279161
2008-08-25 08:47:40 51°20.032 2°36.881 20.1324 0.059497 0.332079 -1.279161
2008-08-25 08:48:40 51°20.056 2°36.882 20.1313 0.059497 0.332073 -1.279161
2008-08-25 08:49:41 51°20.077 2°36.897 20.161 0.059497 0.332067 -1.279161
2008-08-25 08:50:41 51°20.103 2°36.902 20.1615 0.059497 0.332067 -1.279161
2008-08-25 08:51:41 51°20.127 2°36.914 20.1884 0.059497 0.332067 -1.279161
2008-08-25 08:52:40 51°20.149 2°36.871 20.2167 0.059497 0.332079 -1.313985
2008-08-25 08:53:40 51°20.091 2°36.732 20.1852 0.059497 0.332055 -1.279161
2008-08-25 08:54:40 51°19.997 2°36.507 20.204 0.059497 0.332055 -1.279161
2008-08-25 08:55:40 51°19.9 2°36.282 20.2033 0.059497 0.332061 -1.279161
2008-08-25 08:56:40 51°19.925 2°36.171 20.2504 0.059497 0.332104 -1.279161
2008-08-25 08:57:40 51°19.969 2°36.139 20.2723 0.059497 0.332073 -1.279161
2008-08-25 08:58:41 51°20.001 2°36.129 20.2658 0.059497 0.332079 -1.279161
2008-08-25 08:59:40 51°20.031 2°36.119 20.2688 0.059497 0.332079 -1.279161
2008-08-25 09:00:40 51°20.061 2°36.117 20.295 0.059497 0.332061 -1.279161
2008-08-25 09:01:41 51°20.085 2°36.122 20.2921 0.059497 0.332073 -1.279161
2008-08-25 09:02:40 51°20.106 2°36.137 20.3226 0.059497 0.332061 -1.313985
2008-08-25 09:03:40 51°20.123 2°36.165 20.3277 0.059497 0.332073 -1.279161
2008-08-25 09:04:40 51°20.134 2°36.196 20.3304 0.059497 0.332073 -1.279161
2008-08-25 09:05:41 51°20.142 2°36.225 20.3536 0.059497 0.332079 -1.279161
2008-08-25 09:06:40 51°20.15 2°36.251 20.3662 0.059497 0.332073 -1.279161
2008-08-25 09:07:41 51°20.159 2°36.274 20.3784 0.059497 0.332079 -1.279161
2008-08-25 09:08:41 51°20.168 2°36.297 20.3911 0.059497 0.332079 -1.279161
2008-08-25 09:09:40 51°20.184 2°36.319 20.3976 0.059497 0.332085 -1.279161
2008-08-25 09:10:40 51°20.225 2°36.358 20.3872 0.059497 0.332079 -1.279161
2008-08-25 09:11:41 51°20.239 2°36.459 20.3944 0.059497 0.33211 -1.313985
2008-08-25 09:12:40 51°20.2 2°36.554 20.4236 0.059497 0.332085 -1.279161
2008-08-25 09:13:40 51°20.154 2°36.661 20.4248 0.059497 0.332085 -1.279161
2008-08-25 09:14:41 51°20.129 2°36.757 20.4626 0.059497 0.33211 -1.279161
2008-08-25 09:15:41 51°20.151 2°36.852 20.4781 0.059497 0.332104 -1.279161
2008-08-25 09:16:41 51°20.195 2°36.894 20.4755 0.059497 0.332104 -1.279161
2008-08-25 09:17:40 51°20.213 2°36.911 20.4867 0.059497 0.33211 -1.279161
2008-08-25 09:18:41 51°20.228 2°36.933 20.5125 0.059497 0.332116 -1.279161
2008-08-25 09:19:40 51°20.241 2°36.955 20.5096 0.059497 0.332116 -1.279161
2008-08-25 09:20:41 51°20.253 2°36.98 20.517 0.059497 0.332116 -1.279161
2008-08-25 09:21:41 51°20.263 2°37.006 20.5394 0.059497 0.332122 -1.279161
2008-08-25 09:22:40 51°20.284 2°37.019 20.538 0.059497 0.332122 -1.279161
2008-08-25 09:23:41 51°20.31 2°36.983 20.5662 0.059497 0.332128 -1.279161
2008-08-25 09:24:40 51°20.302 2°36.926 20.5633 0.059497 0.332122 -1.279161
2008-08-25 09:25:41 51°20.277 2°36.878 20.5771 0.059497 0.332122 -1.279161
2008-08-25 09:26:40 51°20.265 2°36.851 20.5889 0.059497 0.332128 -1.279161
2008-08-25 09:27:41 51°20.263 2°36.838 20.6075 0.059497 0.332128 -1.279161
2008-08-25 09:28:40 51°20.27 2°36.837 20.6184 0.059497 0.332128 -1.279161
2008-08-25 09:29:40 51°20.284 2°36.844 20.6339 0.059497 0.332122 -1.279161
2008-08-25 09:30:41 51°20.303 2°36.86 20.65 0.059497 0.332122 -1.279161
2008-08-25 09:31:40 51°20.32 2°36.879 20.65 0.059497 0.332122 -1.279161
2008-08-25 09:32:42 51°20.336 2°36.899 20.6666 0.059497 0.332116 -1.279161
2008-08-25 09:33:41 51°20.352 2°36.917 20.6622 0.059497 0.332116 -1.279161
2008-08-25 09:34:40 51°20.38 2°36.911 20.6737 0.059497 0.332116 -1.279161
2008-08-25 09:35:41 51°20.404 2°36.88 20.6884 0.059497 0.332116 -1.279161
2008-08-25 09:36:40 51°20.415 2°36.843 20.7015 0.059497 0.33211 -1.279161
2008-08-25 09:37:41 51°20.406 2°36.824 20.7112 0.059497 0.332116 -1.279161
2008-08-25 09:38:40 51°20.386 2°36.846 20.7063 0.059497 0.33211 -1.279161
2008-08-25 09:39:41 51°20.369 2°36.886 20.7358 0.059497 0.33211 -1.279161
2008-08-25 09:40:40 51°20.355 2°36.919 20.7383 0.059497 0.332116 -1.279161
2008-08-25 09:41:41 51°20.342 2°36.946 20.7606 0.059497 0.332122 -1.279161
2008-08-25 09:42:41 51°20.329 2°36.97 20.7593 0.059497 0.332116 -1.279161
2008-08-25 09:43:41 51°20.315 2°36.997 20.7702 0.059497 0.332122 -1.279161
2008-08-25 09:44:41 51°20.303 2°37.021 20.7891 0.059497 0.332116 -1.279161
2008-08-25 09:45:40 51°20.291 2°37.043 20.8073 0.059497 0.332122 -1.279161
2008-08-25 09:46:41 51°20.277 2°37.063 20.8164 0.059497 0.332128 -1.279161
2008-08-25 09:47:41 51°20.265 2°37.085 20.8107 0.059497 0.332128 -1.279161
2008-08-25 09:48:41 51°20.261 2°37.103 20.8208 0.059497 0.332128 -1.279161
2008-08-25 09:49:41 51°20.265 2°37.123 20.852 0.059497 0.332134 -1.279161
2008-08-25 09:50:40 51°20.271 2°37.144 20.8541 0.059497 0.332134 -1.279161
2008-08-25 09:51:41 51°20.28 2°37.164 20.8626 0.059497 0.332128 -1.279161
2008-08-25 09:52:41 51°20.29 2°37.182 20.8836 0.059497 0.332128 -1.279161
2008-08-25 09:53:40 51°20.302 2°37.2 20.8729 0.059497 0.332134 -1.279161
2008-08-25 09:54:40 51°20.314 2°37.219 20.9085 0.059497 0.33214 -1.279161
2008-08-25 09:55:40 51°20.326 2°37.237 20.9128 0.059497 0.332146 -1.279161
2008-08-25 09:56:41 51°20.337 2°37.254 20.9211 0.059497 0.332152 -1.279161
2008-08-25 09:57:40 51°20.345 2°37.277 20.9257 0.059497 0.332152 -1.279161
2008-08-25 09:58:40 51°20.336 2°37.308 20.946 0.059497 0.332158 -1.279161
2008-08-25 09:59:41 51°20.317 2°37.327 20.9519 0.059497 0.332164 -1.279161
2008-08-25 10:00:41 51°20.292 2°37.32 20.9694 0.059497 0.33217 -1.279161
2008-08-25 10:01:41 51°20.277 2°37.268 20.9966 0.059497 0.332176 -1.279161
2008-08-25 10:02:42 51°20.274 2°37.191 21.015 0.059497 0.332182 -1.279161
2008-08-25 10:03:41 51°20.253 2°37.121 20.9965 0.059497 0.332182 -1.279161
2008-08-25 10:04:42 51°20.226 2°37.075 21.0126 0.059497 0.332182 -1.279161
2008-08-25 10:05:41 51°20.219 2°37.077 21.0258 0.059497 0.332176 -1.279161
2008-08-25 10:06:41 51°20.222 2°37.096 21.0167 0.059497 0.33217 -1.279161
2008-08-25 10:07:41 51°20.229 2°37.116 21.0485 0.059497 0.332164 -1.279161
2008-08-25 10:08:41 51°20.238 2°37.134 21.0525 0.059497 0.332164 -1.279161
2008-08-25 10:09:42 51°20.247 2°37.15 21.0402 0.059497 0.332164 -1.279161
2008-08-25 10:10:42 51°20.258 2°37.167 21.0717 0.059497 0.33217 -1.279161
2008-08-25 10:11:42 51°20.269 2°37.183 21.0879 0.059497 0.33217 -1.279161
2008-08-25 10:12:41 51°20.273 2°37.205 21.0866 0.059497 0.33217 -1.279161
2008-08-25 10:13:42 51°20.254 2°37.227 21.0877 0.059497 0.332176 -1.279161
2008-08-25 10:14:41 51°20.228 2°37.225 21.1205 0.059497 0.332176 -1.279161
2008-08-25 10:15:42 51°20.208 2°37.192 21.1403 0.059497 0.332182 -1.279161
2008-08-25 10:16:41 51°20.2 2°37.16 21.1476 0.059497 0.332182 -1.279161
2008-08-25 10:17:41 51°20.195 2°37.148 21.1292 0.059497 0.332188 -1.279161
2008-08-25 10:18:42 51°20.198 2°37.16 21.1329 0.059497 0.332182 -1.279161
2008-08-25 10:19:41 51°20.207 2°37.177 21.1359 0.059497 0.332164 -1.279161
2008-08-25 10:20:42 51°20.217 2°37.191 21.153 0.059497 0.332164 -1.279161
2008-08-25 10:21:41 51°20.201 2°37.218 21.1359 0.059497 0.33217 -1.279161
2008-08-25 10:22:42 51°20.155 2°37.182 21.2206 0.059497 0.332182 -1.279161
2008-08-25 10:23:41 51°20.15 2°37.148 21.2197 0.059497 0.332176 -1.279161
2008-08-25 10:24:42 51°20.163 2°37.137 21.2277 0.059497 0.33217 -1.279161
2008-08-25 10:25:42 51°20.179 2°37.143 21.2496 0.059497 0.33217 -1.279161
2008-08-25 10:26:41 51°20.191 2°37.153 21.2607 0.059497 0.332164 -1.279161
2008-08-25 10:27:42 51°20.202 2°37.166 21.2778 0.059497 0.332164 -1.279161
2008-08-25 10:28:41 51°20.21 2°37.178 21.2923 0.059497 0.332152 -1.279161
2008-08-25 10:29:42 51°20.218 2°37.193 21.3168 0.059497 0.332152 -1.279161
2008-08-25 10:30:41 51°20.224 2°37.206 21.3337 0.059497 0.332146 -1.279161
2008-08-25 10:31:42 51°20.23 2°37.222 21.3507 0.059497 0.33214 -1.279161
2008-08-25 10:32:41 51°20.236 2°37.236 21.3699 0.059497 0.33214 -1.279161
2008-08-25 10:33:41 51°20.241 2°37.251 21.3962 0.059497 0.33214 -1.279161
2008-08-25 10:34:42 51°20.247 2°37.267 21.4127 0.059497 0.332134 -1.279161
2008-08-25 10:35:41 51°20.254 2°37.281 21.4417 0.059497 0.332128 -1.279161
2008-08-25 10:36:42 51°20.262 2°37.296 21.4581 0.059497 0.332128 -1.279161
2008-08-25 10:37:41 51°20.27 2°37.31 21.4843 0.059497 0.332122 -1.279161
2008-08-25 10:38:42 51°20.279 2°37.322 21.5121 0.059497 0.332122 -1.279161
2008-08-25 10:39:41 51°20.29 2°37.335 21.5238 0.059497 0.332122 -1.279161
2008-08-25 10:40:42 51°20.301 2°37.348 21.5506 0.059497 0.33211 -1.279161
2008-08-25 10:41:42 51°20.326 2°37.341 21.5829 0.059497 0.332116 -1.279161
2008-08-25 10:42:42 51°20.359 2°37.312 21.6032 0.059497 0.332104 -1.279161
2008-08-25 10:43:42 51°20.386 2°37.281 21.6322 0.059497 0.33211 -1.279161
2008-08-25 10:44:41 51°20.404 2°37.269 21.6654 0.059497 0.332104 -1.244337
2008-08-25 10:45:42 51°20.419 2°37.272 21.6889 0.059497 0.332098 -1.279161
2008-08-25 10:46:42 51°20.43 2°37.284 21.7008 0.059497 0.332104 -1.279161
2008-08-25 10:47:42 51°20.436 2°37.297 21.7299 0.059497 0.332092 -1.279161
2008-08-25 10:48:41 51°20.447 2°37.308 21.7472 0.059497 0.332085 -1.279161
2008-08-25 10:49:41 51°20.464 2°37.309 21.7671 0.059497 0.332085 -1.279161
2008-08-25 10:50:41 51°20.478 2°37.311 21.7939 0.059497 0.332085 -1.279161
2008-08-25 10:51:41 51°20.489 2°37.316 21.8177 0.059599 0.332671 -1.244337
2008-08-25 10:52:41 51°20.5 2°37.323 21.837 0.059599 0.332665 -1.279161
2008-08-25 10:53:41 51°20.51 2°37.333 21.862 0.059599 0.332665 -1.279161
2008-08-25 10:54:41 51°20.526 2°37.327 21.8884 0.059599 0.332665 -1.279161
2008-08-25 10:55:41 51°20.534 2°37.243 21.9125 0.059497 0.332073 -1.279161
2008-08-25 10:56:41 51°20.473 2°37.196 21.9166 0.059599 0.332629 -1.279161
2008-08-25 10:57:41 51°20.4 2°37.122 21.9214 0.059497 0.332055 -1.279161
2008-08-25 10:58:41 51°20.32 2°36.994 21.9211 0.059599 0.332647 -1.279161
2008-08-25 10:59:41 51°20.256 2°36.904 21.9164 0.059599 0.332659 -1.279161
2008-08-25 11:00:41 51°20.208 2°36.897 21.9331 0.059599 0.332629 -1.279161
2008-08-25 11:01:41 51°20.171 2°36.897 21.9402 0.059599 0.332629 -1.279161
2008-08-25 11:02:41 51°20.14 2°36.89 21.9451 0.059599 0.332629 -1.244337
2008-08-25 11:03:41 51°20.117 2°36.892 21.9479 0.059599 0.332617 -1.244337
2008-08-25 11:04:41 51°20.108 2°36.904 21.9553 0.059599 0.332605 -1.279161
2008-08-25 11:05:41 51°20.109 2°36.918 21.9679 0.059599 0.332599 -1.279161
2008-08-25 11:06:41 51°20.115 2°36.933 21.966 0.059599 0.332599 -1.244337
2008-08-25 11:07:41 51°20.123 2°36.945 21.9775 0.059599 0.33258 -1.279161
2008-08-25 11:08:41 51°20.123 2°36.967 21.9926 0.059599 0.33258 -1.279161
2008-08-25 11:09:41 51°20.079 2°36.975 21.9985 0.059599 0.332586 -1.244337
2008-08-25 11:10:41 51°20.051 2°36.897 21.9976 0.059599 0.332586 -1.279161
2008-08-25 11:11:41 51°20.06 2°36.845 22.0009 0.059599 0.33258 -1.244337
2008-08-25 11:12:41 51°20.07 2°36.847 22.0145 0.059599 0.332574 -1.279161
2008-08-25 11:13:41 51°20.075 2°36.857 22.0155 0.059599 0.332574 -1.244337
2008-08-25 11:14:41 51°20.079 2°36.867 22.0176 0.059599 0.332574 -1.279161
2008-08-25 11:15:41 51°20.081 2°36.877 22.0263 0.059599 0.332562 -1.244337
2008-08-25 11:16:41 51°20.086 2°36.885 22.0291 0.059599 0.332556 -1.279161
2008-08-25 11:17:41 51°20.092 2°36.893 22.0374 0.059599 0.33255 -1.279161
2008-08-25 11:18:41 51°20.095 2°36.903 22.046 0.059599 0.33255 -1.279161
2008-08-25 11:19:41 51°20.097 2°36.915 22.0474 0.059599 0.332544 -1.279161
2008-08-25 11:20:41 51°20.101 2°36.928 22.0506 0.059599 0.332544 -1.279161
2008-08-25 11:21:41 51°20.105 2°36.939 22.0555 0.059599 0.332544 -1.244337
2008-08-25 11:22:41 51°20.111 2°36.948 22.0623 0.059599 0.332538 -1.244337
2008-08-25 11:23:41 51°20.13 2°36.937 22.0674 0.059599 0.332544 -1.279161
2008-08-25 11:24:41 51°20.145 2°36.881 22.0709 0.059599 0.332532 -1.279161
2008-08-25 11:25:41 51°20.131 2°36.821 22.0762 0.059599 0.33252 -1.279161
2008-08-25 11:26:41 51°20.093 2°36.81 22.083 0.059599 0.332502 -1.244337
2008-08-25 11:27:41 51°20.074 2°36.824 22.093 0.059599 0.332484 -1.279161
2008-08-25 11:28:41 51°20.068 2°36.836 22.0975 0.059599 0.332478 -1.244337
2008-08-25 11:29:41 51°20.072 2°36.846 22.1023 0.059599 0.332454 -1.279161
2008-08-25 11:30:41 51°20.076 2°36.856 22.1081 0.059599 0.332435 -1.279161
2008-08-25 11:31:41 51°20.079 2°36.867 22.1117 0.059599 0.332417 -1.244337
2008-08-25 11:32:41 51°20.082 2°36.877 22.1168 0.059599 0.332393 -1.244337
2008-08-25 11:33:41 51°20.087 2°36.884 22.1228 0.059599 0.332369 -1.244337
2008-08-25 11:34:41 51°20.092 2°36.891 22.1277 0.059599 0.332345 -1.279161
2008-08-25 11:35:41 51°20.095 2°36.9 22.1321 0.059599 0.332327 -1.279161
2008-08-25 11:36:41 51°20.099 2°36.908 22.1362 0.059599 0.332297 -1.279161
2008-08-25 11:37:41 51°20.103 2°36.914 22.14 0.059599 0.332272 -1.279161
2008-08-25 11:38:41 51°20.084 2°36.957 22.1473 0.059599 0.332248 -1.244337
2008-08-25 11:39:41 51°20.043 2°37.128 22.154 0.059599 0.332218 -1.279161
2008-08-25 11:40:41 51°19.953 2°37.364 22.1551 0.059599 0.3322 -1.279161
2008-08-25 11:41:41 51°19.85 2°37.595 22.1546 0.059599 0.332158 -1.279161
2008-08-25 11:42:41 51°19.749 2°37.813 22.1578 0.059599 0.332146 -1.453281
2008-08-25 11:43:41 51°19.692 2°37.946 22.1607 0.059702 0.332694 -1.279161
2008-08-25 11:44:41 51°19.651 2°38.025 22.1615 0.059702 0.332652 -1.348809
2008-08-25 11:45:41 51°19.613 2°38.168 22.1696 0.059702 0.332616 -1.279161
2008-08-25 11:46:41 51°19.545 2°38.341 22.1674 0.059702 0.332586 -1.279161
2008-08-25 11:47:41 51°19.468 2°38.523 22.1758 0.059702 0.332543 -1.279161
2008-08-25 11:48:41 51°19.39 2°38.708 22.1769 0.059702 0.332507 -1.313985
2008-08-25 11:49:41 51°19.313 2°38.895 22.181 0.059702 0.332471 -1.279161
2008-08-25 11:50:41 51°19.235 2°39.082 22.1858 0.059702 0.332447 -1.279161
2008-08-25 11:51:41 51°19.159 2°39.27 22.1898 0.059702 0.332417 -1.279161
2008-08-25 11:52:41 51°19.084 2°39.46 22.195 0.059702 0.332393 -1.279161
2008-08-25 11:53:41 51°19.007 2°39.647 22.198 0.059702 0.332363 -1.279161
2008-08-25 11:54:41 51°18.93 2°39.834 22.2043 0.059702 0.332332 -1.279161
2008-08-25 11:55:41 51°18.851 2°40.018 22.2092 0.059702 0.332314 -1.279161
2008-08-25 11:56:41 51°18.774 2°40.201 22.2131 0.059702 0.332296 -1.279161
2008-08-25 11:57:41 51°18.696 2°40.381 22.2176 0.059702 0.332272 -1.279161
2008-08-25 11:58:41 51°18.62 2°40.556 22.2226 0.059805 0.33285 -1.279161
2008-08-25 11:59:41 51°18.545 2°40.733 22.2258 0.059805 0.33282 -1.279161
2008-08-25 12:00:41 51°18.465 2°40.907 22.2307 0.059805 0.332808 -1.279161
2008-08-25 12:01:41 51°18.387 2°41.084 22.2347 0.059805 0.332778 -1.313985
2008-08-25 12:02:41 51°18.311 2°41.258 22.2403 0.059805 0.332766 -1.279161
2008-08-25 12:03:41 51°18.229 2°41.438 22.2457 0.059805 0.332748 -1.313985
2008-08-25 12:04:41 51°18.145 2°41.615 22.2504 0.059805 0.332718 -1.279161
2008-08-25 12:05:41 51°18.057 2°41.788 22.2527 0.059805 0.332706 -1.279161
2008-08-25 12:06:41 51°17.969 2°41.96 22.2585 0.059805 0.332688 -1.279161
2008-08-25 12:07:41 51°17.881 2°42.13 22.2622 0.059805 0.332669 -1.279161
2008-08-25 12:08:41 51°17.793 2°42.302 22.2646 0.059805 0.332651 -1.313985
2008-08-25 12:09:41 51°17.706 2°42.473 22.2694 0.059805 0.332633 -1.279161
2008-08-25 12:10:41 51°17.618 2°42.645 22.2764 0.059805 0.332615 -1.313985
2008-08-25 12:11:41 51°17.532 2°42.816 22.2822 0.059805 0.332597 -1.313985
2008-08-25 12:12:41 51°17.447 2°42.983 22.2862 0.059805 0.332579 -1.313985
2008-08-25 12:13:41 51°17.363 2°43.147 22.291 0.059805 0.332561 -1.279161
2008-08-25 12:14:41 51°17.277 2°43.311 22.2941 0.059805 0.332537 -1.279161
2008-08-25 12:15:41 51°17.19 2°43.479 22.2997 0.059805 0.332525 -1.279161
2008-08-25 12:16:41 51°17.103 2°43.649 22.3043 0.059805 0.332507 -1.279161
2008-08-25 12:17:41 51°17.015 2°43.819 22.3087 0.059805 0.332489 -1.313985
2008-08-25 12:18:41 51°16.928 2°43.991 22.3178 0.059805 0.332465 -1.313985
2008-08-25 12:19:41 51°16.839 2°44.163 22.3189 0.059805 0.332453 -1.279161
2008-08-25 12:20:41 51°16.75 2°44.337 22.3164 0.059805 0.332429 -1.279161
2008-08-25 12:21:41 51°16.661 2°44.512 22.3266 0.059805 0.332411 -1.279161
2008-08-25 12:22:41 51°16.573 2°44.687 22.329 0.059805 0.332369 -1.279161
2008-08-25 12:23:41 51°16.487 2°44.863 22.3333 0.059805 0.332339 -1.279161
2008-08-25 12:24:41 51°16.413 2°45.053 22.3389 0.059908 0.332892 -1.279161
2008-08-25 12:25:41 51°16.341 2°45.246 22.3409 0.059908 0.332843 -1.279161
2008-08-25 12:26:41 51°16.271 2°45.44 22.3445 0.059908 0.332801 -1.279161
2008-08-25 12:27:41 51°16.202 2°45.634 22.3484 0.059908 0.332759 -1.279161
2008-08-25 12:28:41 51°16.134 2°45.827 22.3559 0.059908 0.332699 -1.279161
2008-08-25 12:29:41 51°16.067 2°46.019 22.3644 0.059908 0.332651 -1.279161
2008-08-25 12:30:41 51°16.032 2°46.228 22.3658 0.059908 0.332603 -1.279161
2008-08-25 12:31:41 51°16.005 2°46.439 22.3687 0.059908 0.332567 -1.279161
2008-08-25 12:32:41 51°15.978 2°46.648 22.3748 0.059908 0.332525 -1.279161
2008-08-25 12:33:41 51°15.951 2°46.857 22.3772 0.059908 0.332483 -1.279161
2008-08-25 12:34:41 51°15.92 2°47.065 22.3768 0.059908 0.332447 -1.279161
2008-08-25 12:35:41 51°15.891 2°47.273 22.3817 0.059908 0.332417 -1.279161
2008-08-25 12:36:41 51°15.864 2°47.481 22.3924 0.059908 0.332369 -1.279161
2008-08-25 12:37:41 51°15.834 2°47.689 22.3955 0.060011 0.332927 -1.279161
2008-08-25 12:38:41 51°15.804 2°47.898 22.4006 0.060011 0.332891 -1.279161
2008-08-25 12:39:41 51°15.774 2°48.108 22.3986 0.060011 0.332849 -1.279161
2008-08-25 12:40:41 51°15.743 2°48.317 22.4084 0.060011 0.332807 -1.313985
2008-08-25 12:41:41 51°15.712 2°48.527 22.4103 0.060011 0.332765 -1.279161
2008-08-25 12:42:41 51°15.683 2°48.737 22.4148 0.060011 0.332723 -1.279161
2008-08-25 12:43:41 51°15.652 2°48.949 22.4163 0.060011 0.332681 -1.279161
2008-08-25 12:44:41 51°15.62 2°49.16 22.4231 0.060011 0.332639 -1.279161
2008-08-25 12:45:41 51°15.588 2°49.369 22.432 0.060011 0.332597 -1.279161
2008-08-25 12:46:41 51°15.556 2°49.578 22.4341 0.060011 0.332561 -1.279161
2008-08-25 12:47:41 51°15.528 2°49.787 22.4375 0.060011 0.332531 -1.279161
2008-08-25 12:48:41 51°15.524 2°49.999 22.4502 0.060011 0.332489 -1.279161
2008-08-25 12:49:41 51°15.514 2°50.211 22.4499 0.060011 0.332459 -1.279161
2008-08-25 12:50:41 51°15.505 2°50.423 22.4542 0.060114 0.333011 -1.279161
2008-08-25 12:51:41 51°15.493 2°50.635 22.464 0.060114 0.332981 -1.279161
2008-08-25 12:52:41 51°15.481 2°50.848 22.4673 0.060114 0.332945 -1.279161
2008-08-25 12:53:41 51°15.469 2°51.06 22.4668 0.060114 0.332915 -1.279161
2008-08-25 12:54:41 51°15.448 2°51.272 22.4691 0.060114 0.332879 -1.279161
2008-08-25 12:55:41 51°15.404 2°51.477 22.4758 0.060114 0.332861 -1.279161
2008-08-25 12:56:41 51°15.351 2°51.677 22.4901 0.060114 0.332813 -1.279161
2008-08-25 12:57:41 51°15.3 2°51.877 22.4924 0.060114 0.332783 -1.279161
2008-08-25 12:58:41 51°15.25 2°52.079 22.4962 0.060114 0.332753 -1.279161
2008-08-25 12:59:41 51°15.2 2°52.282 22.5037 0.060114 0.332717 -1.279161
2008-08-25 13:00:41 51°15.15 2°52.484 22.5057 0.060114 0.332687 -1.279161
2008-08-25 13:01:41 51°15.102 2°52.689 22.5191 0.060114 0.332646 -1.279161
2008-08-25 13:02:41 51°15.052 2°52.894 22.5164 0.060114 0.332622 -1.279161
2008-08-25 13:03:41 51°15.003 2°53.1 22.5343 0.060114 0.332592 -1.279161
2008-08-25 13:04:41 51°14.953 2°53.306 22.5275 0.060114 0.332556 -1.279161
2008-08-25 13:05:41 51°14.904 2°53.499 22.5473 0.060217 0.333112 -1.279161
2008-08-25 13:06:41 51°14.854 2°53.704 22.5555 0.060217 0.333088 -1.279161
2008-08-25 13:07:41 51°14.802 2°53.915 22.5536 0.060217 0.333058 -1.279161
2008-08-25 13:08:41 51°14.743 2°54.123 22.5559 0.060217 0.333017 -1.279161
2008-08-25 13:09:41 51°14.678 2°54.327 22.5605 0.060217 0.332999 -1.279161
2008-08-25 13:10:41 51°14.607 2°54.526 22.5752 0.060217 0.332969 -1.279161
2008-08-25 13:11:41 51°14.529 2°54.717 22.5753 0.060217 0.332939 -1.279161
2008-08-25 13:12:41 51°14.443 2°54.9 22.5862 0.060217 0.332903 -1.279161
2008-08-25 13:13:41 51°14.356 2°55.088 22.5888 0.060217 0.332873 -1.279161
2008-08-25 13:14:41 51°14.26 2°55.264 22.5865 0.060217 0.332843 -1.279161
2008-08-25 13:15:41 51°14.156 2°55.39 22.5975 0.060217 0.332825 -1.279161
2008-08-25 13:16:41 51°14.07 2°55.465 22.5988 0.060217 0.33279 -1.279161
2008-08-25 13:17:41 51°13.966 2°55.539 22.6009 0.060217 0.332754 -1.279161
2008-08-25 13:18:45 51°13.843 2°55.627 22.6014 0.060217 0.332724 -1.279161
2008-08-25 13:19:45 51°13.752 2°55.724 22.6104 0.060217 0.332694 -1.279161
2008-08-25 13:20:45 51°13.699 2°55.823 22.6111 0.060217 0.332646 -1.279161
2008-08-25 13:21:45 51°13.655 2°55.92 22.6208 0.060217 0.332622 -1.279161
2008-08-25 13:22:45 51°13.632 2°55.999 22.626 0.06032 0.333166 -1.279161
2008-08-25 13:23:45 51°13.624 2°56.042 22.629 0.06032 0.33313 -1.244337